Location: El Álamo
(40.2307°N, 3.9945°W)
Time: 03:44:40
(UTC+00:00)

USA 59 Rocket - Pass Details

Date: 19 May 2025
Orbit: 373 x 1695 km, 63.3° (Epoch: 23 June)

Event Time Altitude Azimuth Distance (km) Brightness Sun altitude
Exits shadow 23:56:48 12° 332° (NNW) 1,337 2.5 -29.7°
Drops below altitude 10° 23:57:26 10° 344° (NNW) 1,428 2.8 -29.7°
Sets 00:00:14 0° 15° (NNE) 2,241 4.0 -29.7°
